Home > Weather > Oftringen > Past weeks

Flag for Switzerland Past Weather in Oftringen, Aargau, Switzerland — Yesterday and Last 2 Weeks

Now
60 °F

Cool.


Feels Like: 60 °F
Forecast: 57 / 84 °F
Wind: No wind

Location: Wynau

Current Time: Jul 29, 2016 at 7:58:52 AM

Latest Report: Jul 29, 2016 at 7:00 AM


Visibility: N/A

Pressure: 30.06 "Hg

Humidity: 93%

Dew Point: 58 °F

Location of OftringenLocation

Past Weather in Oftringen — Graph

°F

Oftringen Temperature Yesterday

Maximum temperature yesterday: 77 °F (at 2:00 PM)
Minimum temperature yesterday: 56 °F (at 5:00 AM)
Average temperature yesterday: 67 °F

High & Low Weather Summary for the Past Weeks

 TemperatureHumidityPressure
High90 °F (Jul 20, 5:00 PM)100% (Jul 15, 3:00 AM)30.37 "Hg (Jul 15, 3:00 AM)
Low46 °F (Jul 16, 6:00 AM)31% (Jul 19, 5:00 PM)29.88 "Hg (Jul 20, 6:00 PM)
Average67 °F76%30.10 "Hg
* Reported Jul 14 6:00 AM — Jul 29 6:00 AM, Oftringen, Weather by CustomWeather, © 2016

Note: Actual official high and low records may vary slightly from our data, if they occured in-between our weather recording intervals... More about our weather records

Advertising

Oftringen Weather History for the Previous 24 Hours

Scroll right to see more
 ConditionsComfort  
Time TempWeatherWind HumidityBarometerVisibility
6:00 AM
Fri, Jul 29
61 °FCool.No wind95%30.05 "HgN/A
5:00 AM61 °FCool.1 mph95%30.05 "HgN/A
4:00 AM63 °FMild.No wind94%30.05 "HgN/A
2:00 AM64 °FMild.1 mph90%30.05 "HgN/A
1:00 AM64 °FMild.2 mph93%30.05 "HgN/A
12:00 AM65 °FMild.1 mph83%30.04 "HgN/A
11:00 PM
Thu, Jul 28
66 °FMild.1 mph83%30.03 "HgN/A
10:00 PM68 °FMild.1 mph76%30.02 "HgN/A
9:00 PM70 °FMild.2 mph71%30.01 "HgN/A
8:00 PM73 °FMild.2 mph60%29.99 "HgN/A
7:00 PM75 °FMild.2 mph59%29.98 "HgN/A
6:00 PM76 °FMild.5 mph56%29.98 "HgN/A
5:00 PM74 °FMild.5 mph57%30.00 "HgN/A
4:00 PM74 °FMild.6 mph60%30.01 "HgN/A
3:00 PM77 °FWarm.3 mph49%30.00 "HgN/A
2:00 PM77 °FWarm.5 mph50%30.01 "HgN/A
1:00 PM76 °FMild.6 mph53%30.03 "HgN/A
12:00 PM75 °FMild.5 mph51%30.04 "HgN/A
11:00 AM72 °FMild.2 mph65%30.05 "HgN/A
10:00 AM67 °FMild.3 mph73%30.07 "HgN/A
9:00 AM63 °FMild.2 mph84%30.08 "HgN/A
8:00 AM60 °FCool.No wind90%30.09 "HgN/A
7:00 AM57 °FCool.1 mph95%30.09 "HgN/A
Weather by CustomWeather, © 2016

See weather overviewHow to use our weather pages